Location: Akron Fire Department Station 11
(41.1400°N, 81.5503°W)
Time: 19:05:09
(UTC+00:00)

Hubble Space Telescope - Visible Passes

Search period start: 28 September 2020 00:00
Search period end: 08 October 2020 00:00
Orbit: 536 x 540 km, 28.5° (Epoch: 28 September)

Date Brightness Start Highest point End Pass type
(mag) Time Alt. Az. Time Alt. Az. Time Alt. Az.
28 Sep 3.1 10:32:15 10° SSW 10:34:23 14° S 10:36:32 10° SSE visible
29 Sep 3.0 10:21:22 10° SSW 10:23:32 14° S 10:25:42 10° SSE visible
30 Sep 3.0 10:10:55 11° SSW 10:12:40 14° S 10:14:47 10° SSE visible
01 Oct 2.9 10:00:52 12° SSW 10:01:49 13° S 10:03:48 10° SSE visible
02 Oct 3.0 09:50:51 12° S 09:50:57 12° S 09:52:43 10° SSE visible
03 Oct 3.2 09:40:52 11° S 09:40:52 11° S 09:41:28 10° S visible
